www.pogodaiklimat.ru

Погода и климат >> Архив погоды >> Греция >> Керкира


ПОГОДА в Керкире

  • Прогноз погоды в Керкире
  • Монитор погоды в Керкире

АРХИВ ПОГОДЫ в Керкире

Время (UTC), дата Ветер
(напр.,м/с)
 
Видим.   Явления Облачность Т
(С)
Тd
(С)
f
(%)
Тe
(С)
Тes
(С)
Комфортность P
(гПа)
Po
(гПа)
Тmin
(С)
Tmax
(С)
R
(мм)
R24
(мм)
S
(см)
21 15.02 СВ 4
{8}
10 км 1/0
[Ci fib]
+10.0 -4.2 36 +8 +8 1024.2 1023.6
00 16.02 СВ 4
{9}
10 км ясно +9.4 -5.3 35 +7 +7 1024.9 1024.3
03 16.02 СВ 3
{8}
10 км ясно +8.8 -4.6 38 +7 +7 1024.6 1024.0
06 16.02 штиль 0
{5}
20 км ясно +7.6 -3.5 45 +7 +8 1025.1 1024.6 +4.6 185
09 16.02 С 2
{4}
20 км ясно +12.0 -0.8 41 +11 +18 1026.6 1026.0
12 16.02 С 3
{4}
20 км ясно +15.4 -3.1 28 +15 +21 1025.8 1025.3
15 16.02 СЗ 5
{7}
20 км ясно +15.6 -4.5 25 +15 +15 1025.1 1024.6
18 16.02 ЮЗ 2
{7}
10 км 3/0
[Ci sp]
+9.8 -0.8 48 +9 +9 1025.5 1025.0 +16.2
21 16.02 штиль 0
{2}
10 км ясно +6.4 +0.3 65 +6 +6 1026.0 1025.5
00 17.02 СВ 2
{3}
10 км ясно +4.8 +1.2 77 +2 +2 1026.0 1025.5
03 17.02 штиль 0
{2}
10 км ясно +4.2 +1.7 84 +3 +3 1025.8 1025.3
06 17.02 штиль 0
{2}
20 км ясно +2.8 +1.8 93 +2 +2 1026.0 1025.5 +2.8 220
09 17.02 ЮВ 2
{3}
20 км ясно +13.8 +8.2 69 +14 +21 1026.6 1026.0
12 17.02 ЮВ 3
{5}
10 км 3/1 1000 м
[Cu hum Ac und]
+18.0 +6.4 47 +18 +24 1025.4 1024.9
15 17.02 В 2
{4}
10 км 4/0
[Ci fib]
+17.0 +7.0 52 +18 +18 1024.9 1024.3
18 17.02 З 1
{3}
10 км 3/0
[Ac lent Ci fib]
+11.0 +7.3 78 +11 +11 1024.7 1024.2 +18.6
21 17.02 З 1
{2}
10 км 1/0
[Ci fib]
+7.0 +5.6 91 +6 +6 1025.0 1024.5
00 18.02 З 1
{3}
10 км ясно +5.8 +3.9 88 +5 +5 1024.9 1024.3
03 18.02 СЗ 2
{3}
10 км ясно +5.4 +4.0 91 +3 +3 1024.3 1023.8
06 18.02 штиль 0
{2}
20 км ясно +4.0 +3.0 93 +3 +3 1024.7 1024.2 +4.0 210
09 18.02 штиль 0
{2}
20 км 1/1 300 м
[St]
+12.4 +8.0 75 +12 +21 1025.1 1024.6
12 18.02 ЮВ 3
{5}
20 км 1/1 600 м
[Cu hum]
+18.0 +8.4 53 +18 +24 1024.2 1023.6
15 18.02 ЮВ 3
{6}
20 км ясно +16.6 +9.8 64 +17 +17 1023.0 1022.5
18 18.02 штиль 0
{4}
10 км ясно +11.6 +8.4 81 +11 +11 1023.1 1022.6 +18.0
21 18.02 З 2
{3}
10 км ясно +8.0 +6.7 91 +6 +6 1023.4 1022.9
00 19.02 З 1
{3}
10 км ясно +6.2 +5.3 94 +5 +5 1023.4 1022.9
03 19.02 штиль 0
{2}
10 км 3/3 300 м
[St]
+6.0 +5.1 94 +5 +5 1023.1 1022.6
06 19.02 З 2
{2}
20 км 6/6 600 м
[Cu hum]
+7.0 +6.1 94 +5 +5 1023.0 1022.5 +5.8 180
09 19.02 В 2
{4}
20 км 3/3 300 м
[Cu hum]
+14.4 +11.0 80 +14 +19 1023.4 1022.9
12 19.02 ЮВ 3
{5}
20 км 3/3 600 м
[Cu hum]
+17.0 +8.5 57 +17 +22 1022.7 1022.2
15 19.02 З 3
{6}
20 км 3/3 600 м
[Cu hum]
+17.0 +7.0 52 +17 +17 1022.2 1021.6
18 19.02 штиль 0
{6}
10 км 3/3 300 м
[Cu hum]
+11.6 +7.9 78 +11 +11 1022.0 1021.5 +17.6
21 19.02 З 2
{3}
10 км 1/1 300 м
[Cu hum]
+8.6 +6.9 89 +7 +7 1022.3 1021.8
00 20.02 штиль 0
{2}
10 км 6/6 300 м
[Sc]
+8.0 +6.7 91 +7 +7 1022.3 1021.8
03 20.02 З 2
{3}
10 км 3/3 300 м
[Cu hum]
+7.0 +5.6 91 +5 +5 1021.9 1021.4
06 20.02 З 2
{3}
7000 м дымка 3/3 200 м
[Frnb]
+5.2 +4.7 97 +3 +3 1021.9 1021.4 +5.2 185
09 20.02 ЮВ 2
{2}
10 км 3/3 300 м
[St]
+15.4 +12.1 81 +16 +21 1022.7 1022.2
12 20.02 ЮВ 2
{4}
20 км 4/4 600 м
[Cu hum]
+16.4 +10.0 66 +17 +22 1021.9 1021.4
15 20.02 ЮВ 2
{4}
20 км 1/1 1000 м
[Cu hum]
+16.6 +8.9 60 +17 +18 1020.7 1020.2
18 20.02 ЮЗ 1
{6}
10 км 1/1 600 м
[Cu hum]
+11.8 +7.7 76 +12 +12 1021.4 1020.9 +17.0
21 20.02 З 1
{2}
10 км 1/1 600 м
[Cu hum]
+9.2 +7.1 87 +9 +9 1022.0 1021.5
00 21.02 З 1
{3}
10 км 1/1 600 м
[Cu hum]
+7.4 +6.1 91 +6 +6 1022.2 1021.6
03 21.02 З 1
{3}
8000 м дымка 1/1 300 м
[St]
+6.0 +5.1 94 +5 +5 1022.2 1021.6
06 21.02 З 1
{3}
20 км 5/1 240 м
[St Cs]
+5.2 +4.7 97 +4 +4 1022.9 1022.3 +5.0 210
09 21.02 штиль 0
{2}
20 км 5/0
[Ac trans Ci]
+14.8 +11.5 81 +15 +22 1023.9 1023.4
12 21.02 ЮВ 3
{4}
20 км 1/1 600 м
[Cu hum]
+18.0 +9.7 58 +18 +24 1023.3 1022.7
15 21.02 ЮВ 2
{4}
20 км 1/1 600 м
[Cu hum]
+16.8 +8.2 57 +17 +18 1022.3 1021.8
18 21.02 штиль 0
{4}
10 км ясно +12.2 +8.2 77 +12 +12 1022.3 1021.8 +18.0
21 21.02 штиль 0
{3}
10 км ясно +9.4 +7.3 87 +9 +9 1022.6 1022.0
00 22.02 З 2
{2}
10 км ясно +7.6 +6.3 91 +6 +6 1022.5 1021.9
03 22.02 З 2
{3}
10 км ясно +6.4 +5.5 94 +4 +4 1021.5 1021.0
06 22.02 З 2
{3}
20 км 1/1 300 м
[Cu hum]
+6.0 +5.1 94 +4 +4 1020.7 1020.2 +6.0 190
09 22.02 нст 1
{2}
10 км 6/4 420 м
[Cu hum Cs]
+13.8 +10.4 80 +14 +19 1019.5 1019.0
12 22.02 С 3
{5}
10 км 9/6 420 м
[Cu Sc Ac und]
+15.8 +8.8 63 +15 +17 1017.8 1017.3
15 22.02 З 4
{10}
20 км {дождь} 9/6 540 м
[Cu Sc Ac und]
+12.4 +7.5 72 +11 +11 1016.6 1016.0
18 22.02 З 2
{4}
10 км {дождь} 9/6 540 м
[Cu Sc Ac und]
+10.8 +7.5 80 +10 +10 1015.8 1015.3 +15.8 0.4

 

Местоположение метеостанции Керкира (Греция): широта 39.62 долгота 19.92 высота над уровнем моря 4 м.

В архиве по умолчанию представлена погода в Керкире за последнюю неделю. Архивные данные за месяц целиком и за предыдущие месяцы, начиная с января 2011 года, Вы можете получить, выбрав интересующий диапазон дат из раскрывающегося списка и нажав кнопку "Ввод!".


*Определитесь, кто Вы:
робот инопланетянин человек

Внимание! Время в таблицах - всемирное. Для получения местного времени необходимо прибавить поправку, которая равна 2 ч.

Смотрите также архив погоды в соседних городах и на ближайших метеорологических станциях:

Погода в Саранде (Албания) (30 км)
Погода в Гирокастре (Албания) (55 км)
Погода в Янине (Греция) (78 км)
Погода во Влёре (Албания) (102 км)
Погода на Сазани (Албания) (112 км)
Погода в Корке (Албания) (131 км)
Погода в Кучове (Албания) (131 км)
Погода в Актионе (Греция) (133 км)
Погода в Отранто (Италия) (134 км)
Погода в Санта-Мария-ди-Леуке (Италия) (136 км)

Пояснения к столбцам:

Ветер - указаны скорость ветра в м/с - средняя за 10 мин, порывы в срок и между сроками (в фигурных скобках) и направление, откуда дует ветер: С - северный, СВ - северо-восточный, В - восточный, ЮВ - юго-восточный, Ю - южный, ЮЗ - юго-западный, З - западный, СЗ - северо-западный.
Видимость - горизонтальная дальность видимости в метрах или километрах. При видимости от 1 до 10 км при отсутствии осадков обычно наблюдается дымка, при ухудшении видимости до 1 км и менее - туман. В сухую погоду видимость может ухудшаться дымом, пылью или мглою.
Явления - указаны атмосферные явления, наблюдавшиеся в срок или в последний час перед сроком; фигурными скобками обозначены явления, наблюдавшиеся между сроками (за 1-3 часа до срока); квадратными скобками обозначены град или гололедные отложения с указанием их диаметра в мм.
Облачность - указаны через наклонную черту общая и нижняя облачность в баллах и высота нижней границы облаков в метрах; квадратными скобками обозначены формы облаков: Ci - перистые, Cs - перисто-слоистые, Cc - перисто-кучевые, Ac - высококучевые, As - высокослоистые, Sc - слоисто-кучевые, Ns - слоисто-дождевые, Cu - кучевые, Cb - кучево-дождевые. Подробнее классификацию облаков см. в Атласе облаков (PDF).
T - Температура воздуха - температура, измеренная на высоте 2 м над землей.
Td - Температура точки росы - температура, при понижении до которой содержащийся в воздухе водяной пар достигнет насыщения.
f - Относительная влажность воздуха - влажноcть воздуха, измеренная на высоте 2 м над землей.
Te - Эффективная температура - температура, которую ощущает одетый по сезону человек в тени. Характеристика душности погоды. При расчете учитывается влияние влажности воздуха и скорости ветра на теплоощущения человека.
Tes - Эффективная температура на солнце - температура, которую ощущает человек, с поправкой на солнечный нагрев. Характеристика знойности погоды. Зависит от высоты солнца над горизонтом, облачности и скорости ветра. Ночью, в пасмурную погоду, а также при ветре 12 м/с и более поправка равна нулю.
P - Атмосферное давление - приведенное к уровню моря атмосферное давление.
Po - Атмосферное давление - измеренное на уровне метеостанции атмосферное давление.
Tmin - Минимальная температура - минимум температуры воздуха на высоте 2 м над землей.
Tmax - Максимальная температура - максимум температуры воздуха на высоте 2 м над землей.
R - Количество осадков - Количество выпавших осадков за период времени, мм. При наведении курсора мыши на число - период времени, за который выпало указанное количество осадков.
R24 - Количество осадков - Количество выпавших осадков за 24 часа, мм.
S - Снежный покров - Высота снежного покрова, см. При наведении курсора мыши на число - состояние снежного покрова и степень покрытия местности в баллах.